Temperature
18 18 18 18 18 18 18 18 18 18 18 18 18 18 18 18 18 18 18 18 18 18 18 18 18 18 17 17 17 17 17 17 17 17 17 17 17 17 17 16 16 16 16
18 18 18 18 18 18 18 18 18 18 18 18 18 18 18 18 18 18 18 18 18 18 18 18 18 18 18 17 17 17 17 17 17 17 17 17 17 17 17 16 16 16 16
18 18 18 18 18 18 18 18 18 18 18 18 18 18 18 18 18 18 18 18 18 18 18 18 18 18 18 18 17 17 17 17 17 17 17 17 17 17 17 17 16 16 16
18 18 18 18 18 18 18 18 18 18 18 18 18 18 18 18 18 18 18 18 18 18 18 18 18 18 18 18 17 17 17 17 17 17 17 17 17 17 17 17 16 16 16
18 18 18 18 18 18 18 18 18 18 18 18 18 18 18 18 18 18 18 18 18 18 18 18 18 18 18 18 17 17 17 17 17 17 17 17 17 17 17 17 16 16 16
18 18 18 18 18 18 18 18 18 18 18 18 18 18 18 18 18 18 18 18 18 18 18 17 17 17 18 18 18 17 17 17 17 17 17 17 17 17 17 16 16 16 16
18 18 18 18 18 18 18 18 18 18 18 18 18 18 19 19 18 18 18 18 18 18 18 17 17 17 17 18 18 17 17 17 17 17 17 17 17 17 17 16 16 16 16
18 18 18 18 18 18 18 18 18 18 18 18 18 19 19 19 18 19 18 18 18 18 18 17 17 17 17 17 17 17 17 17 17 17 17 17 17 17 16 16 16 16 16
18 18 18 18 18 18 18 18 18 18 18 18 18 18 19 20 19 19 18 18 18 18 18 17 17 17 17 17 17 17 17 17 17 17 17 17 17 17 16 16 16 16 16
18 18 18 18 18 18 18 18 18 18 18 18 18 18 18 18 19 19 18 18 18 17 17 18 18 17 17 17 17 17 17 17 17 17 17 17 17 16 16 16 16 16 16
18 18 18 18 18 18 18 18 18 18 18 18 18 18 18 18 18 18 18 18 18 18 17 17 17 17 17 17 16 17 17 17 17 17 17 17 16 16 16 16 16 16 16
18 18 18 18 18 18 18 18 18 18 17 17 18 18 18 18 18 18 18 18 18 18 17 17 17 17 17 16 16 17 17 17 17 17 17 16 16 16 16 16 16 16 16
18 18 18 18 18 18 18 18 18 17 17 17 17 17 17 18 18 18 18 18 18 18 17 17 17 17 17 16 16 16 16 16 16 16 16 16 16 16 16 16 16 16 15
18 18 18 18 18 18 17 17 17 17 17 17 17 17 17 17 17 17 17 17 18 18 18 17 17 17 16 16 16 16 16 16 16 16 16 16 16 16 16 16 15 15 15
18 18 18 18 18 18 17 17 17 17 17 17 17 17 17 17 17 17 17 17 17 18 18 17 17 16 16 16 16 16 16 16 16 16 16 16 16 16 15 15 15 15 15
18 18 18 18 18 18 17 17 17 17 17 17 17 17 17 17 17 17 17 17 17 17 17 17 17 16 16 16 16 15 15 16 16 16 16 16 15 15 15 15 15 15 15
18 18 18 18 17 17 17 17 17 17 16 16 16 16 16 16 17 17 17 17 17 17 17 17 16 16 15 15 15 15 15 15 15 15 15 15 15 15 15 15 15 15 15
18 18 18 18 17 17 17 17 17 16 16 16 16 16 16 16 16 16 16 16 16 16 16 16 16 16 15 15 15 15 15 15 15 15 15 15 15 15 15 15 15 15 15
18 18 17 17 17 17 17 17 16 16 16 16 16 16 16 16 16 16 16 16 16 16 16 16 16 16 15 15 15 14 15 14 14 15 14 15 15 15 15 15 15 14 14
18 17 17 17 17 17 17 16 16 16 16 16 16 15 15 15 15 15 15 15 15 15 15 15 15 15 15 14 14 14 14 14 14 14 14 14 14 14 14 14 14 14 14
17 17 17 17 16 16 16 16 16 16 16 16 15 15 15 15 16 15 15 15 15 15 15 15 15 15 15 14 14 14 14 14 14 14 14 14 14 14 14 14 13 14 13
17 17 17 16 16 16 16 16 16 16 16 15 15 15 15 15 15 15 15 15 15 15 15 15 15 14 14 14 13 13 14 14 14 13 13 13 13 13 13 13 13 13 13
16 16 16 16 16 16 16 16 16 16 15 15 15 15 15 15 15 15 15 15 15 14 14 14 14 14 14 13 13 13 13 13 13 13 13 13 13 13 13 13 13 12 12
16 16 16 16 16 16 16 16 16 16 15 15 15 15 15 15 15 15 14 14 14 14 14 14 13 13 13 13 13 13 12 12 12 12 12 12 12 12 12 12 12 12 12
16 16 16 16 16 16 16 16 16 15 15 15 15 15 15 15 15 14 14 14 14 14 14 14 13 13 13 13 12 12 12 12 13 13 12 12 12 12 12 12 12 12 12
15 15 15 15 15 15 15 15 15 15 14 14 14 14 15 14 14 14 14 13 13 13 13 13 13 13 12 12 12 12 12 12 12 12 12 12 12 12 12 12 12 11 11
Wind_Speed
1 1 1 1 1 1 2 2 2 2 2 4 4 4 3 3 3 3 4 8 7 6 7 7 7 7 8 9 10 10 10 10 11 11 11 11 10 10 10 10 10 10 10
1 1 1 1 1 2 1 1 2 2 3 2 3 3 4 4 3 4 3 6 9 8 7 7 7 7 8 9 10 11 11 11 10 11 11 11 10 10 10 10 11 10 10
1 2 1 2 1 1 1 2 2 2 3 3 3 3 3 3 2 3 4 3 5 9 8 7 7 7 7 9 10 11 11 11 11 11 11 11 11 11 11 10 10 10 11
2 2 2 1 1 2 2 1 2 1 2 2 2 2 2 2 2 3 4 3 3 3 7 9 7 7 7 8 9 10 11 11 12 12 12 11 11 11 11 11 11 11 11
3 3 1 0 1 1 2 2 0 1 1 2 2 2 2 2 2 2 2 2 2 3 3 9 10 8 7 7 7 8 9 9 9 11 11 11 11 11 11 11 12 12 12
3 2 2 1 1 1 1 1 1 1 2 2 2 1 2 2 2 2 2 2 2 3 3 3 6 8 9 7 6 7 8 8 8 8 9 10 11 10 10 11 11 11 11
2 2 1 2 2 1 1 2 2 2 2 1 2 2 2 3 2 2 2 2 2 2 2 2 3 3 6 9 7 6 6 8 9 9 9 10 11 11 11 10 10 10 10
3 3 2 2 2 2 2 2 2 2 2 1 2 2 2 3 2 2 2 3 2 2 2 2 2 2 3 3 6 6 5 6 7 9 10 10 10 10 10 10 10 10 10
3 2 2 3 2 2 2 2 3 3 2 2 2 2 2 1 1 2 2 2 2 2 2 1 2 3 3 2 3 6 5 4 5 6 8 9 10 9 9 9 9 9 9
4 3 3 3 3 2 2 3 3 3 3 3 2 3 3 2 2 1 2 2 3 3 2 2 2 2 3 3 2 2 3 3 4 4 5 7 9 9 9 9 9 9 9
4 3 3 3 3 3 2 3 2 3 3 4 3 2 3 3 4 4 3 2 3 3 3 3 2 2 2 3 3 2 4 3 3 3 3 4 6 8 8 8 8 8 8
4 4 4 3 3 3 3 3 3 4 3 4 4 3 3 3 3 4 4 4 3 3 2 2 3 3 3 4 3 4 4 3 3 3 3 4 5 6 7 7 7 8 8
5 5 5 4 4 3 4 3 4 4 3 4 4 4 4 4 4 4 4 3 3 2 2 3 3 3 3 3 2 4 5 5 4 4 3 3 4 6 6 6 6 6 6
4 4 5 5 4 4 4 4 4 4 4 4 5 5 4 4 4 5 5 4 4 4 3 3 3 3 2 3 1 4 4 6 5 5 5 4 4 5 6 6 6 6 6
4 5 5 5 5 5 4 4 4 4 4 5 5 5 5 4 4 5 4 4 5 5 4 3 3 2 3 2 2 3 3 4 6 5 5 5 5 5 5 5 6 6 6
5 5 6 6 6 6 5 5 5 4 5 5 5 5 6 5 4 4 5 5 5 5 5 2 2 2 1 2 3 3 3 6 6 6 5 5 5 6 6 6 6 7 6
6 6 6 6 6 6 5 6 6 5 6 6 6 5 6 5 5 4 4 5 5 5 5 3 2 1 3 3 2 3 4 4 4 7 6 5 6 6 6 6 6 6 6
6 6 6 5 6 5 5 6 6 6 6 6 5 5 6 5 5 5 4 5 4 4 5 5 4 3 4 4 3 4 4 4 4 6 7 6 6 6 6 6 6 6 6
6 5 5 6 5 5 6 6 5 5 5 5 5 5 5 5 5 4 5 5 5 5 5 5 5 3 4 3 3 4 4 3 5 4 7 7 6 7 7 7 6 6 6
6 6 5 6 6 5 6 6 6 5 5 5 5 5 5 5 5 5 5 4 4 4 4 5 4 4 3 3 3 3 3 3 3 3 1 2 5 8 8 8 7 6 6
6 6 5 6 6 5 5 5 6 6 5 5 4 5 4 3 2 3 4 4 4 4 4 5 4 4 3 2 3 4 3 3 2 2 2 2 3 3 5 8 8 6 6
5 5 6 6 6 5 2 3 6 6 5 5 5 5 5 4 3 3 2 3 3 5 5 5 5 4 3 3 2 3 3 3 3 1 2 3 2 2 3 2 5 6 5
5 6 7 7 6 5 4 4 5 6 6 5 5 5 4 3 3 4 4 6 4 4 4 6 5 4 3 2 3 4 3 4 4 2 3 4 2 2 2 2 6 5 4
5 5 6 6 6 5 5 5 6 7 6 5 5 5 4 3 3 3 4 4 5 4 5 5 4 4 3 2 3 5 4 4 4 3 3 4 2 2 2 2 7 6 5
5 5 5 5 6 5 5 6 6 6 5 6 5 5 5 4 2 3 5 5 5 4 4 4 2 2 1 2 3 4 4 4 4 3 2 3 3 3 2 2 4 8 7
4 5 4 5 5 5 6 7 7 6 5 5 5 5 5 4 4 4 6 5 6 5 4 4 5 6 5 6 7 5 5 5 4 3 2 3 3 2 3 2 1 2 3
Wind_Direction
204 160 170 222 230 187 190 208 212 210 221 221 226 227 241 252 254 242 169 167 191 209 212 211 213 210 207 205 206 209 211 214 215 217 217 217 217 218 222 221 220 220 220
245 231 206 208 231 235 222 217 221 221 224 227 236 241 247 243 240 249 226 178 186 198 203 206 211 215 215 215 213 213 216 219 218 217 217 218 218 220 222 221 221 221 221
236 264 233 218 236 250 228 221 226 228 222 220 227 235 241 245 240 245 255 230 191 186 193 202 210 216 223 224 223 218 217 219 219 220 219 218 219 222 222 221 224 225 225
215 241 239 222 232 233 222 225 235 242 242 242 241 250 231 217 226 233 241 235 236 210 187 188 201 214 223 227 227 220 217 218 218 221 221 220 222 223 222 224 228 229 227
210 228 227 52 224 218 233 253 183 264 257 262 239 221 227 217 222 219 228 231 223 233 213 176 189 205 216 224 225 215 213 217 219 221 221 221 224 224 223 226 229 229 228
210 236 192 174 223 206 233 278 259 257 265 261 260 234 223 214 217 211 233 211 212 222 227 215 200 196 199 211 219 214 210 210 216 223 225 225 224 222 219 224 226 227 228
197 221 235 170 222 206 233 236 245 232 245 252 242 230 206 199 209 203 223 244 225 227 214 212 232 230 191 190 201 209 212 214 216 221 223 222 222 218 220 224 225 226 228
211 205 212 218 199 199 215 227 237 265 260 242 262 245 224 192 204 206 210 219 242 232 222 206 201 216 246 195 169 189 211 224 225 225 225 223 218 216 218 222 225 226 230
211 227 216 232 226 227 211 223 233 241 257 245 256 274 272 265 253 186 211 214 230 243 241 220 210 206 226 222 192 180 200 224 235 231 227 219 214 212 209 215 219 221 225
210 213 216 226 240 243 235 241 230 246 254 254 234 255 288 319 281 243 214 210 219 229 243 252 228 195 218 215 186 124 171 205 229 232 230 218 213 210 210 217 220 222 224
215 219 214 218 228 242 245 263 255 254 249 261 261 251 249 243 255 264 257 249 235 229 221 234 245 238 227 225 216 168 169 197 215 226 234 221 216 212 210 215 222 225 228
209 208 212 218 229 244 242 248 248 239 257 269 274 267 252 250 248 254 256 245 245 235 229 239 245 235 232 235 219 130 160 184 207 220 225 220 214 208 206 212 221 230 233
210 203 211 217 230 231 236 241 240 256 253 257 262 265 262 263 264 263 266 264 266 243 223 233 233 236 234 234 203 161 173 185 201 216 220 220 219 214 211 213 217 228 226
219 205 211 218 227 232 235 230 242 241 242 248 255 261 261 258 259 253 259 266 268 254 224 230 230 229 244 240 161 192 197 179 201 218 224 226 228 222 218 215 217 220 219
213 211 220 224 227 228 236 239 240 245 246 249 248 243 250 250 248 254 255 256 263 269 256 218 227 220 229 229 146 219 227 174 197 211 221 230 231 221 215 215 217 220 219
219 215 218 223 223 222 226 237 238 236 241 248 258 265 264 259 256 248 247 248 251 266 274 278 240 216 215 240 170 220 217 168 190 200 210 222 225 217 214 214 217 215 214
220 222 223 224 225 224 223 229 240 237 243 250 254 250 253 266 265 261 252 249 245 249 257 267 279 232 222 252 243 240 237 235 210 187 197 213 220 217 215 217 214 210 215
225 223 224 225 228 227 228 232 240 241 241 244 249 250 254 253 254 264 264 256 254 249 251 255 252 243 230 228 239 248 248 250 258 175 186 205 211 212 212 212 211 211 210
224 226 219 220 225 227 228 231 237 240 241 243 244 246 253 256 256 257 260 256 253 247 242 243 242 236 239 230 233 241 248 255 261 202 183 194 201 203 205 207 207 206 205
220 220 220 224 226 227 228 231 230 233 237 239 242 246 250 249 252 256 250 250 254 256 243 241 238 235 229 227 238 247 248 239 260 266 259 219 190 196 201 200 200 200 202
222 219 220 226 227 228 231 231 230 225 230 235 237 241 236 233 259 269 270 254 245 245 243 242 239 245 236 229 240 248 254 259 249 263 273 256 215 218 205 196 193 194 196
224 221 222 224 228 235 215 240 248 233 230 233 236 239 229 215 206 205 256 286 280 250 251 253 242 241 244 245 254 256 262 268 273 258 273 277 269 259 250 222 146 159 182
222 221 223 223 226 225 195 214 238 237 233 233 234 239 245 221 216 230 209 211 228 230 243 258 257 250 246 239 249 253 264 283 292 295 281 278 269 260 251 135 137 156 174
223 226 225 224 224 215 193 210 230 231 237 232 230 229 234 233 239 238 235 233 236 228 222 233 252 249 244 245 250 257 261 256 248 240 246 267 267 273 262 166 152 165 174
228 232 231 227 225 217 199 210 224 229 226 229 228 223 226 226 198 227 232 234 239 239 201 178 186 201 195 203 243 255 258 259 264 259 240 264 265 272 269 232 171 174 181
240 244 239 235 228 224 195 202 223 230 229 226 220 217 207 220 202 216 229 235 240 242 235 201 191 199 206 201 207 238 259 263 270 269 244 259 260 267 269 259 261 210 191
Height
1554 1554 1554 1554 1555 1555 1555 1555 1555 1555 1556 1556 1557 1557 1557 1558 1558 1559 1558 1557 1557 1557 1557 1557 1557 1558 1558 1559 1559 1560 1560 1561 1561 1562 1563 1563 1564 1565 1566 1566 1567 1568 1569
1553 1553 1553 1553 1554 1554 1554 1554 1554 1554 1555 1555 1555 1556 1556 1556 1556 1557 1557 1556 1556 1556 1556 1556 1556 1556 1557 1557 1558 1558 1558 1559 1559 1560 1561 1561 1562 1563 1563 1564 1565 1566 1566
1551 1552 1552 1552 1552 1552 1552 1553 1553 1554 1554 1554 1554 1554 1555 1555 1555 1555 1556 1556 1555 1554 1554 1554 1554 1555 1555 1555 1555 1556 1556 1556 1557 1558 1558 1559 1560 1560 1561 1561 1562 1563 1564
1550 1550 1551 1552 1551 1552 1552 1552 1553 1553 1553 1553 1553 1553 1553 1553 1553 1553 1554 1554 1554 1554 1553 1553 1553 1553 1553 1553 1553 1554 1554 1554 1555 1555 1556 1557 1557 1558 1558 1559 1560 1560 1561
1549 1550 1550 1550 1550 1551 1551 1551 1552 1552 1552 1552 1552 1552 1552 1552 1552 1553 1553 1553 1553 1553 1553 1551 1551 1551 1551 1551 1551 1551 1552 1552 1552 1553 1553 1554 1554 1555 1556 1556 1557 1558 1558
1548 1549 1550 1549 1550 1550 1550 1550 1550 1550 1550 1550 1551 1551 1551 1551 1551 1551 1551 1552 1551 1551 1551 1551 1551 1550 1549 1549 1549 1549 1550 1550 1550 1550 1551 1551 1552 1552 1553 1554 1554 1555 1556
1548 1548 1549 1548 1548 1549 1549 1549 1549 1549 1550 1549 1550 1550 1550 1550 1550 1550 1550 1550 1550 1550 1550 1549 1549 1549 1549 1547 1547 1547 1548 1548 1548 1548 1548 1549 1549 1550 1550 1551 1552 1552 1553
1547 1548 1547 1548 1548 1547 1547 1547 1547 1548 1548 1548 1548 1548 1548 1549 1548 1548 1548 1548 1549 1549 1549 1548 1547 1547 1547 1547 1546 1546 1546 1546 1546 1546 1546 1546 1547 1547 1548 1548 1549 1549 1550
1546 1546 1546 1546 1546 1547 1547 1546 1546 1547 1547 1547 1547 1548 1547 1546 1546 1547 1547 1547 1546 1546 1547 1546 1546 1545 1545 1545 1545 1544 1544 1544 1544 1544 1544 1544 1544 1545 1545 1545 1546 1546 1547
1545 1545 1545 1545 1545 1546 1545 1545 1545 1545 1545 1546 1546 1545 1546 1546 1546 1545 1546 1545 1545 1544 1545 1545 1545 1544 1544 1544 1543 1542 1542 1542 1542 1541 1541 1542 1542 1542 1543 1543 1543 1544 1544
1543 1543 1543 1543 1543 1544 1543 1543 1543 1543 1543 1544 1544 1544 1544 1544 1544 1544 1543 1544 1543 1543 1543 1543 1543 1543 1542 1542 1541 1540 1540 1540 1540 1539 1539 1539 1540 1540 1540 1540 1541 1541 1541
1540 1541 1541 1541 1541 1542 1541 1541 1541 1541 1541 1541 1542 1542 1542 1542 1542 1542 1541 1541 1541 1541 1541 1540 1541 1540 1540 1540 1539 1538 1538 1538 1537 1537 1537 1537 1537 1537 1537 1538 1538 1538 1538
1538 1538 1539 1539 1539 1539 1539 1539 1538 1539 1539 1539 1539 1539 1540 1540 1540 1540 1539 1539 1539 1539 1538 1538 1538 1538 1538 1538 1537 1535 1535 1535 1535 1535 1535 1535 1535 1535 1535 1535 1535 1535 1535
1536 1536 1536 1536 1536 1536 1537 1537 1537 1537 1536 1536 1537 1536 1537 1537 1537 1537 1537 1537 1536 1536 1536 1536 1536 1535 1535 1535 1534 1533 1533 1533 1533 1532 1532 1532 1532 1532 1532 1532 1532 1533 1533
1532 1532 1533 1533 1533 1533 1534 1534 1534 1534 1534 1535 1535 1534 1534 1534 1534 1534 1534 1534 1535 1534 1533 1533 1533 1533 1532 1532 1531 1531 1531 1530 1530 1530 1530 1530 1530 1529 1529 1529 1530 1530 1530
1529 1529 1530 1530 1530 1530 1531 1531 1532 1532 1531 1532 1532 1531 1531 1532 1532 1532 1532 1531 1531 1532 1531 1531 1531 1530 1530 1530 1529 1529 1529 1528 1527 1527 1527 1527 1527 1527 1527 1526 1527 1527 1527
1526 1526 1527 1527 1527 1527 1528 1528 1529 1529 1529 1529 1529 1529 1529 1529 1529 1529 1529 1529 1529 1529 1529 1529 1528 1528 1526 1526 1526 1526 1526 1525 1525 1524 1524 1524 1524 1524 1524 1524 1524 1524 1524
1523 1524 1524 1524 1525 1525 1525 1525 1526 1526 1526 1526 1526 1526 1526 1526 1525 1526 1526 1526 1526 1525 1526 1525 1525 1525 1523 1523 1523 1522 1523 1523 1523 1522 1521 1521 1521 1521 1521 1521 1520 1520 1520
1520 1521 1521 1521 1522 1522 1522 1522 1522 1522 1522 1522 1522 1522 1522 1522 1522 1523 1522 1522 1523 1522 1522 1522 1521 1521 1521 1520 1520 1520 1520 1519 1520 1520 1518 1517 1517 1517 1517 1517 1517 1517 1517
1517 1517 1518 1518 1518 1519 1519 1519 1519 1519 1519 1519 1519 1519 1519 1519 1519 1519 1519 1518 1519 1519 1519 1519 1518 1518 1518 1517 1517 1517 1517 1517 1517 1517 1516 1515 1514 1514 1514 1514 1514 1514 1514
1513 1514 1514 1515 1515 1516 1516 1516 1516 1516 1516 1515 1515 1515 1515 1515 1515 1515 1516 1515 1515 1515 1516 1515 1515 1515 1515 1515 1515 1515 1515 1514 1514 1513 1513 1512 1512 1511 1511 1511 1510 1510 1510
1510 1510 1510 1511 1511 1512 1512 1512 1512 1513 1512 1512 1512 1511 1511 1511 1511 1511 1511 1512 1512 1512 1512 1512 1512 1512 1512 1512 1512 1512 1512 1512 1512 1511 1510 1510 1510 1509 1509 1509 1507 1507 1507
1506 1506 1507 1507 1507 1507 1508 1508 1509 1509 1508 1508 1508 1508 1509 1508 1508 1508 1508 1508 1508 1508 1508 1508 1509 1508 1509 1509 1509 1509 1509 1509 1509 1508 1508 1507 1507 1506 1506 1505 1504 1504 1504
1502 1502 1503 1503 1503 1503 1504 1504 1504 1505 1504 1504 1504 1504 1504 1504 1505 1504 1504 1504 1504 1504 1504 1504 1504 1505 1506 1505 1506 1507 1506 1506 1505 1505 1505 1505 1504 1504 1503 1502 1501 1501 1501
1499 1499 1499 1499 1499 1499 1500 1500 1501 1501 1500 1500 1500 1500 1500 1501 1500 1500 1501 1501 1500 1500 1500 1500 1500 1501 1501 1502 1503 1504 1504 1504 1503 1503 1503 1502 1502 1501 1501 1500 1499 1498 1498
1495 1496 1496 1495 1495 1495 1495 1496 1497 1497 1497 1497 1497 1497 1497 1497 1497 1497 1498 1498 1497 1497 1497 1497 1497 1498 1498 1499 1499 1500 1501 1501 1501 1501 1500 1500 1499 1499 1498 1498 1497 1497 1496